,,,PA_Meas_PMT16A,,PR_Meas_QMR101_102,,RH_Meas_QMH101,,SR_Meas_QMS101,,TA_Meas_QMH101,,GenWind,,GenWind,
date,time,status,PA,status,PR,status,RH,status,SR,status,TA,status,DirAvg,status,SpdAvg,
2014-01-04, 00:00:04,VALID,1010.63,VALID,0,VALID,104,VALID,0.112112,VALID,24.0429,VALID,330,VALID,0,
2014-01-04, 00:01:04,VALID,1010.63,VALID,0,VALID,104,VALID,0,VALID,24.0448,VALID,330,VALID,0,
2014-01-04, 00:02:04,VALID,1010.63,VALID,0,VALID,104,VALID,0,VALID,23.9845,VALID,330,VALID,0,
2014-01-04, 00:03:04,VALID,1010.63,VALID,0,VALID,104,VALID,0,VALID,23.9845,VALID,330,VALID,0,
2014-01-04, 00:04:04,VALID,1010.63,VALID,0,VALID,104,VALID,0,VALID,24.0058,VALID,330,VALID,0,
2014-01-04, 00:05:04,VALID,1010.62,VALID,0,VALID,104,VALID,0,VALID,23.9845,VALID,330,VALID,0,
2014-01-04, 00:06:04,VALID,1010.62,VALID,0,VALID,104,VALID,0,VALID,23.9845,VALID,330,VALID,0,
2014-01-04, 00:07:04,VALID,1010.6,VALID,0,VALID,104,VALID,0,VALID,24.0058,VALID,330,VALID,0,
2014-01-04, 00:08:04,VALID,1010.63,VALID,0,VALID,104,VALID,0,VALID,23.965,VALID,330,VALID,0,
2014-01-04, 00:09:04,VALID,1010.63,VALID,0,VALID,104,VALID,0.112112,VALID,23.9863,VALID,330,VALID,0,
2014-01-04, 00:10:04,VALID,1010.63,VALID,0,VALID,104,VALID,0.112112,VALID,23.9863,VALID,330,VALID,0,
2014-01-04, 00:11:04,VALID,1010.62,VALID,0,VALID,104,VALID,0,VALID,23.9455,VALID,330,VALID,0,
2014-01-04, 00:12:04,VALID,1010.62,VALID,0,VALID,104,VALID,0,VALID,23.9668,VALID,330,VALID,0,
2014-01-04, 00:13:04,VALID,1010.61,VALID,0,VALID,104,VALID,0.112112,VALID,23.9668,VALID,330,VALID,0,
2014-01-04, 00:14:04,VALID,1010.62,VALID,0,VALID,104,VALID,0,VALID,23.9668,VALID,330,VALID,0,
2014-01-04, 00:15:04,VALID,1010.6,VALID,0,VALID,104,VALID,0,VALID,23.926,VALID,330,VALID,0,
2014-01-04, 00:16:04,VALID,1010.62,VALID,0,VALID,104,VALID,0,VALID,23.9473,VALID,330,VALID,0,
2014-01-04, 00:17:04,VALID,1010.65,VALID,0,VALID,104,VALID,0,VALID,23.926,VALID,330,VALID,0,
2014-01-04, 00:18:04,VALID,1010.65,VALID,0,VALID,104,VALID,0,VALID,23.9278,VALID,330,VALID,0,
2014-01-04, 00:19:04,VALID,1010.68,VALID,0,VALID,104,VALID,0,VALID,23.9278,VALID,330,VALID,0,
2014-01-04, 00:20:04,VALID,1010.67,VALID,0,VALID,104,VALID,0,VALID,23.9065,VALID,330,VALID,0,
2014-01-04, 00:21:04,VALID,1010.66,VALID,0,VALID,104,VALID,0.112112,VALID,23.926,VALID,330,VALID,0,
2014-01-04, 00:22:04,VALID,1010.65,VALID,0,VALID,104,VALID,0.112112,VALID,23.9065,VALID,330,VALID,0,
2014-01-04, 00:23:04,VALID,1010.69,VALID,0,VALID,104,VALID,0,VALID,23.926,VALID,329,VALID,0,
2014-01-04, 00:24:04,VALID,1010.67,VALID,0,VALID,104,VALID,0,VALID,23.9473,VALID,330,VALID,0,
2014-01-04, 00:25:04,VALID,1010.62,VALID,0,VALID,104,VALID,0,VALID,23.9455,VALID,330,VALID,0,
2014-01-04, 00:26:04,VALID,1010.6,VALID,0,VALID,104,VALID,0,VALID,23.9455,VALID,330,VALID,0,
2014-01-04, 00:27:04,VALID,1010.56,VALID,0,VALID,104,VALID,0,VALID,23.9668,VALID,330,VALID,0,
2014-01-04, 00:28:04,VALID,1010.56,VALID,0,VALID,104,VALID,0,VALID,23.9455,VALID,330,VALID,0,
2014-01-04, 00:29:04,VALID,1010.57,VALID,0,VALID,104,VALID,0,VALID,23.926,VALID,330,VALID,0,
2014-01-04, 00:30:04,VALID,1010.55,VALID,0,VALID,104,VALID,0,VALID,23.9473,VALID,330,VALID,0,
2014-01-04, 00:31:04,VALID,1010.55,VALID,0,VALID,104,VALID,0,VALID,23.9473,VALID,330,VALID,0,
2014-01-04, 00:32:04,VALID,1010.57,VALID,0,VALID,104,VALID,0,VALID,23.926,VALID,330,VALID,0,
2014-01-04, 00:33:04,VALID,1010.51,VALID,0,VALID,104,VALID,0,VALID,23.9065,VALID,330,VALID,0,
2014-01-04, 00:34:04,VALID,1010.5,VALID,0,VALID,104,VALID,0,VALID,23.9065,VALID,330,VALID,0,
2014-01-04, 00:35:04,VALID,1010.53,VALID,0,VALID,104,VALID,0,VALID,23.9084,VALID,330,VALID,0,
2014-01-04, 00:36:04,VALID,1010.5,VALID,0,VALID,104,VALID,0,VALID,23.8871,VALID,330,VALID,0,
2014-01-04, 00:37:04,VALID,1010.51,VALID,0,VALID,104,VALID,0,VALID,23.9278,VALID,330,VALID,0,
2014-01-04, 00:38:04,VALID,1010.48,VALID,0,VALID,104,VALID,0,VALID,23.9084,VALID,330,VALID,0,
2014-01-04, 00:39:04,VALID,1010.48,VALID,0,VALID,104,VALID,0,VALID,23.9084,VALID,330,VALID,0,
2014-01-04, 00:40:04,VALID,1010.46,VALID,0,VALID,104,VALID,0,VALID,23.8676,VALID,330,VALID,0,
2014-01-04, 00:41:04,VALID,1010.45,VALID,0,VALID,104,VALID,0.112112,VALID,23.8481,VALID,330,VALID,0,
2014-01-04, 00:42:04,VALID,1010.42,VALID,0,VALID,104,VALID,0,VALID,23.8286,VALID,330,VALID,0,
2014-01-04, 00:43:04,VALID,1010.44,VALID,0,VALID,104,VALID,0,VALID,23.8499,VALID,330,VALID,0,
2014-01-04, 00:44:04,VALID,1010.42,VALID,0,VALID,104,VALID,0,VALID,23.8304,VALID,330,VALID,0,
2014-01-04, 00:45:04,VALID,1010.44,VALID,0,VALID,104,VALID,0,VALID,23.7914,VALID,330,VALID,0,
2014-01-04, 00:46:04,VALID,1010.46,VALID,0,VALID,104,VALID,0,VALID,23.8109,VALID,330,VALID,0,
2014-01-04, 00:47:04,VALID,1010.46,VALID,0,VALID,104,VALID,0.112112,VALID,23.7896,VALID,330,VALID,0,
2014-01-04, 00:48:04,VALID,1010.45,VALID,0,VALID,104,VALID,0,VALID,23.8091,VALID,330,VALID,0,
2014-01-04, 00:49:04,VALID,1010.46,VALID,0,VALID,104,VALID,0,VALID,23.8304,VALID,330,VALID,0,
2014-01-04, 00:50:04,VALID,1010.42,VALID,0,VALID,104,VALID,0,VALID,23.8304,VALID,330,VALID,0,
2014-01-04, 00:51:04,VALID,1010.42,VALID,0,VALID,104,VALID,0,VALID,23.8109,VALID,330,VALID,0,
2014-01-04, 00:52:04,VALID,1010.43,VALID,0,VALID,104,VALID,0,VALID,23.7914,VALID,330,VALID,0,
2014-01-04, 00:53:04,VALID,1010.4,VALID,0,VALID,104,VALID,0,VALID,23.8109,VALID,330,VALID,0,
2014-01-04, 00:54:04,VALID,1010.39,VALID,0,VALID,104,VALID,0,VALID,23.8109,VALID,330,VALID,0,
2014-01-04, 00:55:04,VALID,1010.38,VALID,0,VALID,104,VALID,0,VALID,23.8109,VALID,330,VALID,0,
2014-01-04, 00:56:04,VALID,1010.35,VALID,0,VALID,104,VALID,0,VALID,23.8304,VALID,330,VALID,0,
2014-01-04, 00:57:04,VALID,1010.31,VALID,0,VALID,104,VALID,0,VALID,23.8091,VALID,330,VALID,0,
2014-01-04, 00:58:04,VALID,1010.28,VALID,0,VALID,104,VALID,0,VALID,23.8304,VALID,330,VALID,0,
2014-01-04, 00:59:04,VALID,1010.3,VALID,0,VALID,104,VALID,0,VALID,23.8499,VALID,330,VALID,0,
2014-01-04, 01:00:04,VALID,1010.3,VALID,0,VALID,104,VALID,0,VALID,23.8499,VALID,330,VALID,0,
2014-01-04, 01:01:04,VALID,1010.3,VALID,0,VALID,104,VALID,0,VALID,23.8499,VALID,330,VALID,0,
2014-01-04, 01:02:04,VALID,1010.29,VALID,0,VALID,104,VALID,0,VALID,23.8499,VALID,330,VALID,0,
2014-01-04, 01:03:04,VALID,1010.28,VALID,0,VALID,104,VALID,0,VALID,23.8499,VALID,330,VALID,0,
2014-01-04, 01:04:04,VALID,1010.28,VALID,0,VALID,104,VALID,0,VALID,23.8694,VALID,330,VALID,0,
2014-01-04, 01:05:04,VALID,1010.27,VALID,0,VALID,104,VALID,0,VALID,23.8499,VALID,330,VALID,0,
2014-01-04, 01:06:04,VALID,1010.29,VALID,0,VALID,104,VALID,0,VALID,23.8694,VALID,330,VALID,0,
2014-01-04, 01:07:04,VALID,1010.28,VALID,0,VALID,104,VALID,0,VALID,23.8499,VALID,330,VALID,0,
2014-01-04, 01:08:04,VALID,1010.27,VALID,0,VALID,104,VALID,0,VALID,23.8481,VALID,330,VALID,0,
2014-01-04, 01:09:04,VALID,1010.25,VALID,0,VALID,104,VALID,0,VALID,23.8694,VALID,330,VALID,0,
2014-01-04, 01:10:04,VALID,1010.24,VALID,0,VALID,104,VALID,0,VALID,23.8481,VALID,330,VALID,0,
2014-01-04, 01:11:04,VALID,1010.24,VALID,0,VALID,104,VALID,0,VALID,23.8694,VALID,330,VALID,0,
2014-01-04, 01:12:04,VALID,1010.23,VALID,0,VALID,104,VALID,0,VALID,23.8304,VALID,330,VALID,0,
2014-01-04, 01:13:04,VALID,1010.22,VALID,0,VALID,104,VALID,0,VALID,23.8304,VALID,330,VALID,0,
2014-01-04, 01:14:04,VALID,1010.23,VALID,0,VALID,104,VALID,0,VALID,23.8499,VALID,330,VALID,0,
2014-01-04, 01:15:04,VALID,1010.21,VALID,0,VALID,104,VALID,0,VALID,23.8304,VALID,330,VALID,0,
2014-01-04, 01:16:04,VALID,1010.25,VALID,0,VALID,104,VALID,0,VALID,23.8304,VALID,330,VALID,0,
2014-01-04, 01:17:04,VALID,1010.25,VALID,0,VALID,104,VALID,0,VALID,23.8091,VALID,330,VALID,0,
2014-01-04, 01:18:04,VALID,1010.26,VALID,0,VALID,104,VALID,0,VALID,23.7914,VALID,330,VALID,0,
2014-01-04, 01:19:04,VALID,1010.22,VALID,0,VALID,104,VALID,0,VALID,23.7914,VALID,330,VALID,0,
2014-01-04, 01:20:04,VALID,1010.22,VALID,0,VALID,104,VALID,0,VALID,23.772,VALID,330,VALID,0,
2014-01-04, 01:21:04,VALID,1010.24,VALID,0,VALID,104,VALID,0,VALID,23.772,VALID,330,VALID,0,
2014-01-04, 01:22:04,VALID,1010.21,VALID,0,VALID,104,VALID,0,VALID,23.7525,VALID,330,VALID,0,
2014-01-04, 01:23:04,VALID,1010.22,VALID,0,VALID,104,VALID,0,VALID,23.7525,VALID,330,VALID,0,
2014-01-04, 01:24:04,VALID,1010.23,VALID,0,VALID,104,VALID,0,VALID,23.733,VALID,330,VALID,0,
2014-01-04, 01:25:04,VALID,1010.26,VALID,0,VALID,104,VALID,0,VALID,23.694,VALID,330,VALID,0,
2014-01-04, 01:26:04,VALID,1010.27,VALID,0,VALID,104,VALID,0,VALID,23.733,VALID,330,VALID,0,
2014-01-04, 01:27:04,VALID,1010.25,VALID,0,VALID,104,VALID,0,VALID,23.733,VALID,330,VALID,0,
2014-01-04, 01:28:04,VALID,1010.26,VALID,0,VALID,104,VALID,0,VALID,23.7525,VALID,330,VALID,0,
2014-01-04, 01:29:04,VALID,1010.26,VALID,0,VALID,104,VALID,0,VALID,23.7701,VALID,330,VALID,0,
2014-01-04, 01:30:04,VALID,1010.25,VALID,0,VALID,104,VALID,0,VALID,23.7914,VALID,330,VALID,0,
2014-01-04, 01:31:04,VALID,1010.24,VALID,0,VALID,104,VALID,0,VALID,23.7701,VALID,330,VALID,0,
2014-01-04, 01:32:04,VALID,1010.26,VALID,0,VALID,104,VALID,0,VALID,23.8109,VALID,330,VALID,0,
2014-01-04, 01:33:04,VALID,1010.23,VALID,0,VALID,104,VALID,0,VALID,23.8109,VALID,330,VALID,0,
2014-01-04, 01:34:04,VALID,1010.23,VALID,0,VALID,104,VALID,0,VALID,23.7896,VALID,330,VALID,0,
2014-01-04, 01:35:04,VALID,1010.21,VALID,0,VALID,104,VALID,0.112112,VALID,23.7914,VALID,330,VALID,0,
2014-01-04, 01:36:04,VALID,1010.17,VALID,0,VALID,104,VALID,0.112112,VALID,23.772,VALID,330,VALID,0,
2014-01-04, 01:37:04,VALID,1010.16,VALID,0,VALID,104,VALID,0,VALID,23.772,VALID,330,VALID,0,
2014-01-04, 01:38:04,VALID,1010.15,VALID,0,VALID,104,VALID,0,VALID,23.7312,VALID,330,VALID,0,
2014-01-04, 01:39:04,VALID,1010.14,VALID,0,VALID,104,VALID,0,VALID,23.733,VALID,330,VALID,0,
2014-01-04, 01:40:04,VALID,1010.14,VALID,0,VALID,104,VALID,0,VALID,23.7525,VALID,330,VALID,0,
2014-01-04, 01:41:04,VALID,1010.13,VALID,0,VALID,104,VALID,0,VALID,23.772,VALID,330,VALID,0,
2014-01-04, 01:42:04,VALID,1010.12,VALID,0,VALID,104,VALID,0,VALID,23.7701,VALID,330,VALID,0,
2014-01-04, 01:43:04,VALID,1010.13,VALID,0,VALID,104,VALID,0,VALID,23.7896,VALID,330,VALID,0,
2014-01-04, 01:44:04,VALID,1010.13,VALID,0,VALID,104,VALID,0,VALID,23.8109,VALID,330,VALID,0,
2014-01-04, 01:45:04,VALID,1010.14,VALID,0,VALID,104,VALID,0,VALID,23.7701,VALID,330,VALID,0,
2014-01-04, 01:46:04,VALID,1010.09,VALID,0,VALID,104,VALID,0,VALID,23.8109,VALID,330,VALID,0,
2014-01-04, 01:47:04,VALID,1010.09,VALID,0,VALID,104,VALID,0.112112,VALID,23.7896,VALID,330,VALID,0,
2014-01-04, 01:48:04,VALID,1010.12,VALID,0,VALID,104,VALID,0,VALID,23.8109,VALID,330,VALID,0,
2014-01-04, 01:49:04,VALID,1010.12,VALID,0,VALID,104,VALID,0,VALID,23.8109,VALID,330,VALID,0,
2014-01-04, 01:50:04,VALID,1010.11,VALID,0,VALID,104,VALID,0,VALID,23.8304,VALID,330,VALID,0,
2014-01-04, 01:51:04,VALID,1010.13,VALID,0,VALID,104,VALID,0,VALID,23.7701,VALID,330,VALID,0,
2014-01-04, 01:52:04,VALID,1010.1,VALID,0,VALID,104,VALID,0.112112,VALID,23.8304,VALID,330,VALID,0,
2014-01-04, 01:53:04,VALID,1010.09,VALID,0,VALID,104,VALID,0,VALID,23.8304,VALID,330,VALID,0,
2014-01-04, 01:54:04,VALID,1010.1,VALID,0,VALID,104,VALID,0.112112,VALID,23.8304,VALID,330,VALID,0,
2014-01-04, 01:55:04,VALID,1010.09,VALID,0,VALID,104,VALID,0,VALID,23.8109,VALID,330,VALID,0,
2014-01-04, 01:56:04,VALID,1010.11,VALID,0,VALID,104,VALID,0,VALID,23.7896,VALID,330,VALID,0,
2014-01-04, 01:57:04,VALID,1010.07,VALID,0,VALID,104,VALID,0,VALID,23.8109,VALID,330,VALID,0,
2014-01-04, 01:58:04,VALID,1010.08,VALID,0,VALID,104,VALID,0,VALID,23.7701,VALID,330,VALID,0,
2014-01-04, 01:59:04,VALID,1010.07,VALID,0,VALID,104,VALID,0.112112,VALID,23.7701,VALID,330,VALID,0,
2014-01-04, 02:00:04,VALID,1010.07,VALID,0,VALID,104,VALID,0,VALID,23.7932,VALID,329,VALID,0,
2014-01-04, 02:01:04,VALID,1010.06,VALID,0,VALID,104,VALID,0,VALID,23.772,VALID,330,VALID,0,
2014-01-04, 02:02:04,VALID,1010.04,VALID,0,VALID,104,VALID,0,VALID,23.7914,VALID,330,VALID,0,
2014-01-04, 02:03:04,VALID,1010.04,VALID,0,VALID,104,VALID,0,VALID,23.7932,VALID,330,VALID,0,
2014-01-04, 02:04:04,VALID,1010.02,VALID,0,VALID,104,VALID,0,VALID,23.7525,VALID,330,VALID,0,
2014-01-04, 02:05:04,VALID,1010.07,VALID,0,VALID,104,VALID,0,VALID,23.772,VALID,330,VALID,0,
2014-01-04, 02:06:04,VALID,1010.05,VALID,0,VALID,104,VALID,0,VALID,23.7525,VALID,330,VALID,0,
2014-01-04, 02:07:04,VALID,1010.05,VALID,0,VALID,104,VALID,0,VALID,23.733,VALID,330,VALID,0,
2014-01-04, 02:08:04,VALID,1010.03,VALID,0,VALID,104,VALID,0,VALID,23.7117,VALID,330,VALID,0,
2014-01-04, 02:09:04,VALID,1010.02,VALID,0,VALID,104,VALID,0,VALID,23.733,VALID,330,VALID,0,
2014-01-04, 02:10:04,VALID,1010.01,VALID,0,VALID,104,VALID,0,VALID,23.733,VALID,330,VALID,0,
2014-01-04, 02:11:04,VALID,1010.01,VALID,0,VALID,104,VALID,0,VALID,23.733,VALID,330,VALID,0,
2014-01-04, 02:12:04,VALID,1009.99,VALID,0,VALID,104,VALID,0,VALID,23.6922,VALID,330,VALID,0,
2014-01-04, 02:13:04,VALID,1009.98,VALID,0,VALID,104,VALID,0,VALID,23.7117,VALID,330,VALID,0,
2014-01-04, 02:14:04,VALID,1009.94,VALID,0,VALID,104,VALID,0.112112,VALID,23.6922,VALID,330,VALID,0,
2014-01-04, 02:15:04,VALID,1009.94,VALID,0,VALID,104,VALID,0.112112,VALID,23.7135,VALID,330,VALID,0,
2014-01-04, 02:16:04,VALID,1009.92,VALID,0,VALID,104,VALID,0,VALID,23.7135,VALID,330,VALID,0,
2014-01-04, 02:17:04,VALID,1009.9,VALID,0,VALID,104,VALID,0,VALID,23.6922,VALID,330,VALID,0,
2014-01-04, 02:18:04,VALID,1009.92,VALID,0,VALID,104,VALID,0,VALID,23.7135,VALID,330,VALID,0,
2014-01-04, 02:19:04,VALID,1009.93,VALID,0,VALID,104,VALID,0,VALID,23.694,VALID,330,VALID,0,
2014-01-04, 02:20:04,VALID,1009.91,VALID,0,VALID,104,VALID,0,VALID,23.694,VALID,330,VALID,0,
2014-01-04, 02:21:04,VALID,1009.9,VALID,0,VALID,104,VALID,0,VALID,23.694,VALID,330,VALID,0,
2014-01-04, 02:22:04,VALID,1009.9,VALID,0,VALID,104,VALID,0,VALID,23.6922,VALID,330,VALID,0,
2014-01-04, 02:23:04,VALID,1009.89,VALID,0,VALID,104,VALID,0,VALID,23.6922,VALID,330,VALID,0,
2014-01-04, 02:24:04,VALID,1009.9,VALID,0,VALID,104,VALID,0,VALID,23.694,VALID,330,VALID,0,
2014-01-04, 02:25:04,VALID,1009.87,VALID,0,VALID,104,VALID,0,VALID,23.694,VALID,330,VALID,0,
2014-01-04, 02:26:04,VALID,1009.87,VALID,0,VALID,104,VALID,0,VALID,23.6532,VALID,330,VALID,0,
2014-01-04, 02:27:04,VALID,1009.88,VALID,0,VALID,104,VALID,0,VALID,23.6532,VALID,330,VALID,0,
2014-01-04, 02:28:04,VALID,1009.89,VALID,0,VALID,104,VALID,0,VALID,23.6745,VALID,330,VALID,0,
2014-01-04, 02:29:04,VALID,1009.89,VALID,0,VALID,104,VALID,0,VALID,23.655,VALID,330,VALID,0,
2014-01-04, 02:30:04,VALID,1009.87,VALID,0,VALID,104,VALID,0,VALID,23.6143,VALID,330,VALID,0,
2014-01-04, 02:31:04,VALID,1009.88,VALID,0,VALID,104,VALID,0,VALID,23.6143,VALID,330,VALID,0,
2014-01-04, 02:32:04,VALID,1009.87,VALID,0,VALID,104,VALID,0.112112,VALID,23.5966,VALID,330,VALID,0,
2014-01-04, 02:33:04,VALID,1009.88,VALID,0,VALID,104,VALID,0,VALID,23.5966,VALID,330,VALID,0,
2014-01-04, 02:34:04,VALID,1009.88,VALID,0,VALID,104,VALID,0,VALID,23.5966,VALID,330,VALID,0,
2014-01-04, 02:35:04,VALID,1009.86,VALID,0,VALID,104,VALID,0,VALID,23.5558,VALID,330,VALID,0,
2014-01-04, 02:36:04,VALID,1009.91,VALID,0,VALID,104,VALID,0,VALID,23.5363,VALID,330,VALID,0,
2014-01-04, 02:37:04,VALID,1009.9,VALID,0,VALID,104,VALID,0,VALID,23.5381,VALID,330,VALID,0,
2014-01-04, 02:38:04,VALID,1009.9,VALID,0,VALID,104,VALID,0,VALID,23.5186,VALID,330,VALID,0,
2014-01-04, 02:39:04,VALID,1009.89,VALID,0,VALID,104,VALID,0.112112,VALID,23.5169,VALID,330,VALID,0,
2014-01-04, 02:40:04,VALID,1009.89,VALID,0,VALID,104,VALID,0,VALID,23.4779,VALID,330,VALID,0,
2014-01-04, 02:41:04,VALID,1009.9,VALID,0,VALID,104,VALID,0,VALID,23.4797,VALID,330,VALID,0,
2014-01-04, 02:42:04,VALID,1009.89,VALID,0,VALID,104,VALID,0,VALID,23.4584,VALID,330,VALID,0,
2014-01-04, 02:43:04,VALID,1009.88,VALID,0,VALID,104,VALID,0,VALID,23.4602,VALID,330,VALID,0,
2014-01-04, 02:44:04,VALID,1009.86,VALID,0,VALID,104,VALID,0,VALID,23.4407,VALID,330,VALID,0,
2014-01-04, 02:45:04,VALID,1009.88,VALID,0,VALID,104,VALID,0,VALID,23.4407,VALID,330,VALID,0,
2014-01-04, 02:46:04,VALID,1009.87,VALID,0,VALID,104,VALID,0,VALID,23.4407,VALID,330,VALID,0,
2014-01-04, 02:47:04,VALID,1009.84,VALID,0,VALID,104,VALID,0,VALID,23.4,VALID,330,VALID,0,
2014-01-04, 02:48:04,VALID,1009.82,VALID,0,VALID,104,VALID,0,VALID,23.4,VALID,330,VALID,0,
2014-01-04, 02:49:04,VALID,1009.82,VALID,0,VALID,104,VALID,0,VALID,23.4,VALID,330,VALID,0,
2014-01-04, 02:50:04,VALID,1009.8,VALID,0,VALID,104,VALID,0.112112,VALID,23.4212,VALID,330,VALID,0,
2014-01-04, 02:51:04,VALID,1009.81,VALID,0,VALID,104,VALID,0,VALID,23.3823,VALID,330,VALID,0,
2014-01-04, 02:52:04,VALID,1009.76,VALID,0,VALID,104,VALID,0,VALID,23.322,VALID,330,VALID,0,
2014-01-04, 02:53:04,VALID,1009.78,VALID,0,VALID,104,VALID,0,VALID,23.3238,VALID,330,VALID,0,
2014-01-04, 02:54:04,VALID,1009.76,VALID,0,VALID,104,VALID,0,VALID,23.3026,VALID,330,VALID,0,
2014-01-04, 02:55:04,VALID,1009.76,VALID,0,VALID,104,VALID,0,VALID,23.3238,VALID,330,VALID,0,
2014-01-04, 02:56:04,VALID,1009.74,VALID,0,VALID,104,VALID,0,VALID,23.3026,VALID,330,VALID,0,
2014-01-04, 02:57:04,VALID,1009.73,VALID,0,VALID,104,VALID,0,VALID,23.2636,VALID,330,VALID,0,
2014-01-04, 02:58:04,VALID,1009.69,VALID,0,VALID,104,VALID,0.112112,VALID,23.2636,VALID,330,VALID,0,
2014-01-04, 02:59:04,VALID,1009.69,VALID,0,VALID,104,VALID,0,VALID,23.2636,VALID,330,VALID,0,
2014-01-04, 03:00:04,VALID,1009.68,VALID,0,VALID,104,VALID,0,VALID,23.2441,VALID,330,VALID,0,
2014-01-04, 03:01:04,VALID,1009.69,VALID,0,VALID,104,VALID,0,VALID,23.2246,VALID,330,VALID,0,
2014-01-04, 03:02:04,VALID,1009.68,VALID,0,VALID,104,VALID,0,VALID,23.2246,VALID,330,VALID,0,
2014-01-04, 03:03:04,VALID,1009.68,VALID,0,VALID,104,VALID,0,VALID,23.2051,VALID,330,VALID,0,
2014-01-04, 03:04:04,VALID,1009.65,VALID,0,VALID,104,VALID,0,VALID,23.2069,VALID,330,VALID,0,
2014-01-04, 03:05:04,VALID,1009.65,VALID,0,VALID,104,VALID,0,VALID,23.1662,VALID,330,VALID,0,
2014-01-04, 03:06:04,VALID,1009.66,VALID,0,VALID,104,VALID,0,VALID,23.1662,VALID,330,VALID,0,
2014-01-04, 03:07:04,VALID,1009.66,VALID,0,VALID,104,VALID,0,VALID,23.1679,VALID,330,VALID,0,
2014-01-04, 03:08:04,VALID,1009.67,VALID,0,VALID,104,VALID,0,VALID,23.1874,VALID,330,VALID,0,
2014-01-04, 03:09:04,VALID,1009.66,VALID,0,VALID,104,VALID,0,VALID,23.1679,VALID,330,VALID,0,
2014-01-04, 03:10:04,VALID,1009.67,VALID,0,VALID,104,VALID,0,VALID,23.1662,VALID,330,VALID,0,
2014-01-04, 03:11:04,VALID,1009.66,VALID,0,VALID,104,VALID,0,VALID,23.1679,VALID,330,VALID,0,
2014-01-04, 03:12:04,VALID,1009.7,VALID,0,VALID,104,VALID,0,VALID,23.1485,VALID,330,VALID,0,
2014-01-04, 03:13:04,VALID,1009.69,VALID,0,VALID,104,VALID,0,VALID,23.1077,VALID,330,VALID,0,
2014-01-04, 03:14:04,VALID,1009.65,VALID,0,VALID,104,VALID,0,VALID,23.1272,VALID,330,VALID,0,
2014-01-04, 03:15:04,VALID,1009.62,VALID,0,VALID,104,VALID,0,VALID,23.1467,VALID,330,VALID,0,
2014-01-04, 03:16:04,VALID,1009.62,VALID,0,VALID,104,VALID,0,VALID,23.1467,VALID,330,VALID,0,
2014-01-04, 03:17:04,VALID,1009.62,VALID,0,VALID,104,VALID,0.112112,VALID,23.1077,VALID,330,VALID,0,
2014-01-04, 03:18:04,VALID,1009.61,VALID,0,VALID,104,VALID,0,VALID,23.129,VALID,330,VALID,0,
2014-01-04, 03:19:04,VALID,1009.56,VALID,0,VALID,104,VALID,0,VALID,23.1077,VALID,330,VALID,0,
2014-01-04, 03:20:04,VALID,1009.58,VALID,0,VALID,104,VALID,0.112112,VALID,23.0883,VALID,330,VALID,0,
2014-01-04, 03:21:04,VALID,1009.55,VALID,0,VALID,104,VALID,0,VALID,23.0688,VALID,330,VALID,0,
2014-01-04, 03:22:04,VALID,1009.58,VALID,0,VALID,104,VALID,0,VALID,23.0493,VALID,330,VALID,0,
2014-01-04, 03:23:04,VALID,1009.54,VALID,0,VALID,104,VALID,0,VALID,23.0493,VALID,330,VALID,0,
2014-01-04, 03:24:04,VALID,1009.54,VALID,0,VALID,104,VALID,0.112112,VALID,23.0298,VALID,330,VALID,0,
2014-01-04, 03:25:04,VALID,1009.51,VALID,0,VALID,104,VALID,0.112112,VALID,23.0298,VALID,330,VALID,0,
2014-01-04, 03:26:04,VALID,1009.51,VALID,0,VALID,104,VALID,0.112112,VALID,23.0298,VALID,330,VALID,0,
2014-01-04, 03:27:04,VALID,1009.53,VALID,0,VALID,104,VALID,0,VALID,23.0705,VALID,330,VALID,0,
2014-01-04, 03:28:04,VALID,1009.51,VALID,0,VALID,104,VALID,0.112112,VALID,23.0493,VALID,330,VALID,0,
2014-01-04, 03:29:04,VALID,1009.49,VALID,0,VALID,104,VALID,0.112112,VALID,23.0705,VALID,330,VALID,0,
2014-01-04, 03:30:04,VALID,1009.49,VALID,0,VALID,104,VALID,0,VALID,23.0705,VALID,330,VALID,0,
2014-01-04, 03:31:04,VALID,1009.5,VALID,0,VALID,104,VALID,0.112112,VALID,23.09,VALID,330,VALID,0,
2014-01-04, 03:32:04,VALID,1009.51,VALID,0,VALID,104,VALID,0.112112,VALID,23.0688,VALID,330,VALID,0,
2014-01-04, 03:33:04,VALID,1009.5,VALID,0,VALID,104,VALID,0.112112,VALID,23.09,VALID,330,VALID,0,
2014-01-04, 03:34:04,VALID,1009.51,VALID,0,VALID,104,VALID,0.112112,VALID,23.0705,VALID,330,VALID,0,
2014-01-04, 03:35:04,VALID,1009.51,VALID,0,VALID,104,VALID,0,VALID,23.0493,VALID,330,VALID,0,
2014-01-04, 03:36:04,VALID,1009.53,VALID,0,VALID,104,VALID,0.112112,VALID,23.0298,VALID,330,VALID,0,
2014-01-04, 03:37:04,VALID,1009.52,VALID,0,VALID,104,VALID,0.112112,VALID,23.0493,VALID,330,VALID,0,
2014-01-04, 03:38:04,VALID,1009.54,VALID,0,VALID,104,VALID,0,VALID,23.0298,VALID,330,VALID,0,
2014-01-04, 03:39:04,VALID,1009.52,VALID,0,VALID,104,VALID,0.112112,VALID,23.0705,VALID,330,VALID,0,
2014-01-04, 03:40:04,VALID,1009.53,VALID,0,VALID,104,VALID,0.112112,VALID,23.0688,VALID,330,VALID,0,
2014-01-04, 03:41:04,VALID,1009.51,VALID,0,VALID,104,VALID,0,VALID,23.0688,VALID,330,VALID,0,
2014-01-04, 03:42:04,VALID,1009.51,VALID,0,VALID,104,VALID,0.112112,VALID,23.0883,VALID,330,VALID,0,
2014-01-04, 03:43:04,VALID,1009.52,VALID,0,VALID,104,VALID,0.112112,VALID,23.0883,VALID,330,VALID,0,
2014-01-04, 03:44:04,VALID,1009.52,VALID,0,VALID,104,VALID,0.112112,VALID,23.129,VALID,330,VALID,0,
2014-01-04, 03:45:04,VALID,1009.53,VALID,0,VALID,104,VALID,0,VALID,23.1077,VALID,330,VALID,0,
2014-01-04, 03:46:04,VALID,1009.55,VALID,0,VALID,104,VALID,0,VALID,23.1077,VALID,330,VALID,0,
2014-01-04, 03:47:04,VALID,1009.58,VALID,0,VALID,104,VALID,0,VALID,23.0883,VALID,330,VALID,0,
2014-01-04, 03:48:04,VALID,1009.55,VALID,0,VALID,104,VALID,0,VALID,23.1485,VALID,330,VALID,0,
2014-01-04, 03:49:04,VALID,1009.53,VALID,0,VALID,104,VALID,0,VALID,23.1272,VALID,330,VALID,0,
2014-01-04, 03:50:04,VALID,1009.56,VALID,0,VALID,104,VALID,0.112112,VALID,23.1679,VALID,330,VALID,0,
2014-01-04, 03:51:04,VALID,1009.55,VALID,0,VALID,104,VALID,0,VALID,23.1485,VALID,330,VALID,0,
2014-01-04, 03:52:04,VALID,1009.54,VALID,0,VALID,104,VALID,0,VALID,23.1697,VALID,330,VALID,0,
2014-01-04, 03:53:04,VALID,1009.57,VALID,0,VALID,104,VALID,0.112112,VALID,23.1485,VALID,330,VALID,0,
2014-01-04, 03:54:04,VALID,1009.57,VALID,0,VALID,104,VALID,0,VALID,23.1077,VALID,330,VALID,0,
2014-01-04, 03:55:04,VALID,1009.62,VALID,0,VALID,104,VALID,0.112112,VALID,23.0883,VALID,330,VALID,0,
2014-01-04, 03:56:04,VALID,1009.62,VALID,0,VALID,104,VALID,0,VALID,23.1077,VALID,330,VALID,0,
2014-01-04, 03:57:04,VALID,1009.61,VALID,0,VALID,104,VALID,0,VALID,23.1095,VALID,330,VALID,0,
2014-01-04, 03:58:04,VALID,1009.6,VALID,0,VALID,104,VALID,0,VALID,23.0688,VALID,330,VALID,0,
2014-01-04, 03:59:04,VALID,1009.61,VALID,0,VALID,104,VALID,0,VALID,23.0298,VALID,330,VALID,0,
2014-01-04, 04:00:04,VALID,1009.64,VALID,0,VALID,104,VALID,0.112112,VALID,23.0103,VALID,330,VALID,0,
2014-01-04, 04:01:04,VALID,1009.65,VALID,0,VALID,104,VALID,0,VALID,23.0121,VALID,330,VALID,0,
2014-01-04, 04:02:04,VALID,1009.68,VALID,0,VALID,104,VALID,0.112112,VALID,23.0121,VALID,330,VALID,0,
2014-01-04, 04:03:04,VALID,1009.7,VALID,0,VALID,104,VALID,0.112112,VALID,22.9909,VALID,330,VALID,0,
2014-01-04, 04:04:04,VALID,1009.69,VALID,0,VALID,104,VALID,0,VALID,22.9909,VALID,330,VALID,0,
2014-01-04, 04:05:04,VALID,1009.67,VALID,0,VALID,104,VALID,0.112112,VALID,22.9909,VALID,330,VALID,0,
2014-01-04, 04:06:04,VALID,1009.68,VALID,0,VALID,104,VALID,0.112112,VALID,22.9909,VALID,330,VALID,0,